Regional Weather Roundup
Issued by NWS New Orleans/Baton Rouge, LA

Home | Current Version | Previous Version | Graphics & Text | Print | Product List | Glossary On
Versions: 1 2 3 4 5 6 7 8 9 10 11 12 13 14 15 16 17 18 19 20 21 22 23 24 25 26 27 28 29 30 31 32 33 34 35 36 37 38 39 40 41 42 43 44 45 46 47 48 49 50
800
ASUS44 KLIX 291605
RWRLIX
NEW ORLEANS REGIONAL WEATHER ROUNDUP
NATIONAL WEATHER SERVICE NEW ORLEANS LA
1000 AM CST THU JAN 29 2015

NOTE: "FAIR" INDICATES FEW OR NO CLOUDS BELOW 12,000 FEET WITH NO
      SIGNIFICANT WEATHER AND/OR OBSTRUCTIONS TO VISIBILITY.
      SKY/WX - SKY CONDITION AND SIGNIFICANT WEATHER.
      TMP - AIR TEMPERATURE.     DP    - DEWPOINT TEMPERATURE.
      RH  - RELATIVE HUMIDITY.   PRES  - PRESSURE.
      HI  - HEAT INDEX.          WCI   - WIND CHILL INDEX.

*  THESE STATIONS ARE NOT NWS OR FAA STATIONS AND ARE NOT UNDER
   NWS QUALITY CONTROL.

LAZ038-040-048-061>063-065>067-069-291700-
SOUTHEAST LOUISIANA

CITY           SKY/WX    TMP DP  RH WIND       PRES   REMARKS
N.O. AUDUBON     N/A     68  55  63 MISG        N/A
N.O. INTL ARPT MOSUNNY   67  55  65 S8        30.27R
N.O. LAKEFRONT SUNNY     68  52  56 S12       30.27R
N.O. DOWNTOWN* NOT AVBL
SLIDELL        SUNNY     66  51  58 S12       30.27R
BATON ROUGE    PTSUNNY   60  52  74 SE3       30.27S
BOOTHVILLE     SUNNY     67  55  65 SE14      30.27S
BELLE CHASSE   PTSUNNY   68  53  58 S8        30.27R
BOGALUSA*        N/A     64  50  60 S8        30.29R
GALLIANO*      SUNNY     70  60  70 MISG      30.27R
NEW ROADS*     PTSUNNY   62  55  78 SW3       30.27R
GONZALES*        N/A     65  58  80 S6        30.26S
HAMMOND*       SUNNY     64  54  68 S3        30.28R
HOUMA*         SUNNY     68  59  73 SE10      30.26R
PORT FOURCHON* SUNNY     68  59  73 SE9       30.29R

$$

MSZ070-080>082-291700-
SOUTHERN MISSISSIPPI

CITY           SKY/WX    TMP DP  RH WIND       PRES   REMARKS
MCCOMB         CLOUDY    59  52  77 SW6       30.27R
GULFPORT       SUNNY     64  52  64 S9        30.27R
BILOXI         SUNNY     65  54  67 S10       30.27R
PASCAGOULA     SUNNY     66  52  60 S12       30.27S
STENNIS ARPT*  SUNNY     64  46  52 S9        30.27R

$$

COASTAL OBSERVATIONS
LAKE AND NEARSHORE STATIONS

STATION/POSITION TIME  TEMP    WIND        PRES    WAVE
                       AIR SEA DIR/SP/G            HT/PER
                 (UTC) (F)     (DEG/KT/KT) (MB)    (FT/S)
PASCAGOULA       1500   64     150/  3/  8 1024.5
WAVELAND YACHT   1500   56     170/  5/  6 1023.8
GRAND ISLE       1500   65 61  150/  6/ 12 1024.7
SOUTHWEST PASS   1500   58 45  140/ 11/ 11 1024.9
NEW CANAL        1500   63 53  180/  4/  7 1024.8
SHELL BEACH      1500   61 55  150/  7/ 10 1024.3

OFFSHORE STATIONS

STATION/POSITION TIME  TEMP    WIND        PRES    WAVE
                       AIR SEA DIR/SP/G            HT/PER
                 (UTC) (F)     (DEG/KT/KT) (MB)    (FT/S)
64 S DAUPHIN ISL 1513   65 69  160/ 14/ 16 1025.9    2/ 5

$$




USA.gov is the U.S. government's official web portal to all federal, state and local government web resources and services.